Coleman, TX

4:34 AM CDT on August 27, 2016 (GMT -0500)
Coleman Municipal

Weather History for KCOM - February, 2013

Change the Weather History Date:

Wednesday, February 27, 2013

  Actual Average (KABI) Record (KABI)
Temperature  
Mean Temperature 45 °F 52 °F  
Max Temperature 56 °F 63 °F 89 °F (2011)
Min Temperature 34 °F 40 °F 16 °F (2002)
Degree Days  
Heating Degree Days 20 14  
Month to date heating degree days 451  
Since 1 July heating degree days 2120  
Cooling Degree Days 0 0  
Month to date cooling degree days 0  
Year to date cooling degree days 1  
Moisture  
Dew Point 23 °F    
Average Humidity 47    
Maximum Humidity 81    
Minimum Humidity 19    
Precipitation  
Precipitation 0.00 in 0.06 in 1.80 in (1944)
Month to date precipitation 1.31  
Year to date precipitation 2.33  
Sea Level Pressure  
Sea Level Pressure 30.12 in    
Wind  
Wind Speed 10 mph (NNW)    
Max Wind Speed 23 mph    
Max Gust Speed 30 mph    
Visibility 10 miles    
Events      
T = Trace of Precipitation, MM = Missing Value Source: NWS Daily Summary

Daily Weather History Graph

Daily Weather History Graph

Search for Another Location

Airport or City:

Trip Planner

Search our weather history database for the weather conditions in past years. The results will help you decide how hot, cold, wet, or windy it might be!

Date:

Astronomy

Feb. 27, 2013 Rise Set
Actual Time 7:06 AM CST 6:34 PM CST
Civil Twilight 6:42 AM CST 6:58 PM CST
Nautical Twilight 6:13 AM CST 7:27 PM CST
Astronomical Twilight 5:45 AM CST 7:55 PM CST
Moon 8:44 PM CST 7:53 AM CST
Length of Visible Light 12h 16m
Length of Day
11h 27m
Waning Gibbous, 96% of the Moon is Illuminated
Feb 27
Waning Gibbous
Mar 4
Last Quarter
Mar 11
New
Mar 19
First Quarter
Mar 27
Full

Hourly Weather History & Observations

Time (CST) Temp. Windchill Dew Point Humidity Pressure Visibility Wind Dir Wind Speed Gust Speed Precip Events Conditions
12:15 AM 43.0 °F - 23.0 °F 45% 29.81 in 10.0 mi Calm Calm - N/A   Clear
12:35 AM 42.4 °F 40.7 °F 23.4 °F 47% 29.81 in 10.0 mi South 3.5 mph - N/A   Clear
12:55 AM 41.7 °F - 23.7 °F 49% 29.82 in 10.0 mi Calm Calm - N/A   Clear
1:15 AM 39.7 °F - 23.7 °F 53% 29.83 in 10.0 mi Calm Calm - N/A   Clear
1:35 AM 38.3 °F 35.9 °F 24.3 °F 57% 29.84 in 10.0 mi WNW 3.5 mph - N/A   Clear
1:55 AM 37.6 °F 34.0 °F 24.4 °F 59% 29.85 in 10.0 mi WNW 4.6 mph - N/A   Clear
2:15 AM 37.4 °F 33.8 °F 24.3 °F 59% 29.85 in 10.0 mi NW 4.6 mph - N/A   Clear
2:55 AM 37.4 °F 31.4 °F 25.3 °F 62% 29.88 in 10.0 mi NNW 8.1 mph - N/A   Clear
3:15 AM 36.7 °F 29.4 °F 26.1 °F 65% 29.88 in 10.0 mi NNW 10.4 mph - N/A   Clear
3:35 AM 36.5 °F 28.7 °F 27.1 °F 69% 29.89 in 10.0 mi NNW 11.5 mph - N/A   Clear
3:55 AM 36.7 °F 27.6 °F 27.7 °F 70% 29.92 in 10.0 mi NNW 15.0 mph 21.9 mph N/A   Clear
4:15 AM 37.4 °F 27.5 °F 28.9 °F 71% 29.94 in 10.0 mi NNW 18.4 mph - N/A   Clear
4:35 AM 37.6 °F 27.4 °F 29.8 °F 74% 29.96 in 10.0 mi NNW 19.6 mph 27.6 mph N/A   Clear
5:15 AM 36.3 °F 25.5 °F 31.1 °F 81% 30.01 in 10.0 mi NNW 20.7 mph 27.6 mph N/A   Clear
5:35 AM 35.8 °F 25.7 °F 30.4 °F 81% 30.03 in 10.0 mi NNW 17.3 mph 26.5 mph N/A   Clear
5:55 AM 35.2 °F 26.2 °F 29.5 °F 80% 30.03 in 10.0 mi North 13.8 mph 20.7 mph N/A   Clear
6:15 AM 35.1 °F 26.4 °F 29.3 °F 80% 30.05 in 10.0 mi NNW 12.7 mph - N/A   Clear
6:35 AM 34.9 °F 27.1 °F 28.9 °F 79% 30.06 in 10.0 mi NNW 10.4 mph - N/A   Clear
6:55 AM 34.7 °F 26.9 °F 28.2 °F 77% 30.08 in 10.0 mi NNW 10.4 mph - N/A   Clear
7:15 AM 34.5 °F 27.3 °F 27.1 °F 74% 30.11 in 10.0 mi NW 9.2 mph - N/A   Clear
7:35 AM 34.3 °F 27.0 °F 26.8 °F 74% 30.11 in 10.0 mi NW 9.2 mph - N/A   Clear
7:55 AM 35.4 °F 29.0 °F 26.6 °F 70% 30.12 in 10.0 mi NNW 8.1 mph - N/A   Clear
8:15 AM 36.7 °F 28.4 °F 26.4 °F 66% 30.14 in 10.0 mi NNW 12.7 mph - N/A   Clear
8:35 AM 38.3 °F 31.9 °F 25.9 °F 61% 30.15 in 10.0 mi NNW 9.2 mph - N/A   Clear
8:55 AM 40.5 °F 33.6 °F 25.0 °F 54% 30.16 in 10.0 mi North 11.5 mph - N/A   Clear
9:15 AM 43.0 °F 36.0 °F 22.6 °F 45% 30.17 in 10.0 mi North 13.8 mph 19.6 mph N/A   Clear
9:35 AM 45.1 °F 38.4 °F 21.7 °F 40% 30.17 in 10.0 mi North 15.0 mph 20.7 mph N/A   Clear
9:55 AM 46.2 °F 39.5 °F 22.6 °F 39% 30.18 in 10.0 mi North 16.1 mph - N/A   Clear
10:15 AM 47.3 °F - 23.5 °F 39% 30.18 in 10.0 mi North 15.0 mph - N/A   Clear
10:55 AM 48.9 °F - 27.3 °F 43% 30.19 in 10.0 mi NNW 15.0 mph 21.9 mph N/A   Clear
11:15 AM 49.8 °F - 28.6 °F 44% 30.19 in 10.0 mi NNW 18.4 mph - N/A   Clear
11:35 AM 50.0 °F - 28.9 °F 44% 30.20 in 10.0 mi NNW 17.3 mph 24.2 mph N/A   Clear
11:55 AM 51.3 °F - 29.1 °F 43% 30.20 in 10.0 mi North 17.3 mph 26.5 mph N/A   Scattered Clouds
12:15 PM 52.0 °F - 28.9 °F 41% 30.20 in 10.0 mi North 18.4 mph 25.3 mph N/A   Mostly Cloudy
12:35 PM 53.1 °F - 28.8 °F 39% 30.20 in 10.0 mi NNW 16.1 mph 26.5 mph N/A   Scattered Clouds
12:55 PM 52.7 °F - 28.6 °F 40% 30.19 in 10.0 mi NW 15.0 mph 28.8 mph N/A   Scattered Clouds
1:15 PM 53.2 °F - 27.3 °F 37% 30.19 in 10.0 mi North 21.9 mph 27.6 mph N/A   Scattered Clouds
1:35 PM 53.8 °F - 23.4 °F 31% 30.18 in 10.0 mi NNW 18.4 mph 26.5 mph N/A   Clear
1:55 PM 54.7 °F - 21.7 °F 28% 30.18 in 10.0 mi NNW 18.4 mph 23.0 mph N/A   Clear
2:15 PM 55.2 °F - 16.5 °F 22% 30.18 in 10.0 mi North 23.0 mph 27.6 mph N/A   Clear
2:35 PM 55.4 °F - 13.5 °F 19% 30.18 in 10.0 mi North 19.6 mph 29.9 mph N/A   Clear
2:55 PM 55.6 °F - 14.7 °F 20% 30.17 in 10.0 mi NNW 19.6 mph 28.8 mph N/A   Clear
3:15 PM 55.9 °F - 15.6 °F 21% 30.17 in 10.0 mi North 15.0 mph 26.5 mph N/A   Clear
3:35 PM 56.1 °F - 15.8 °F 21% 30.17 in 10.0 mi North 16.1 mph 21.9 mph N/A   Clear
3:55 PM 56.3 °F - 15.6 °F 20% 30.17 in 10.0 mi NNW 16.1 mph 26.5 mph N/A   Clear
4:15 PM 56.1 °F - 15.3 °F 20% 30.17 in 10.0 mi North 17.3 mph 24.2 mph N/A   Clear
4:35 PM 55.4 °F - 16.2 °F 21% 30.18 in 10.0 mi NNW 11.5 mph 25.3 mph N/A   Clear
4:55 PM 55.0 °F - 15.3 °F 21% 30.18 in 10.0 mi North 20.7 mph 24.2 mph N/A   Clear
5:15 PM 54.5 °F - 14.2 °F 20% 30.18 in 10.0 mi NNW 16.1 mph 20.7 mph N/A   Clear
5:35 PM 53.6 °F - 14.5 °F 21% 30.18 in 10.0 mi North 13.8 mph 21.9 mph N/A   Clear
5:55 PM 52.9 °F - 15.6 °F 23% 30.19 in 10.0 mi North 15.0 mph - N/A   Clear
6:15 PM 51.6 °F - 16.7 °F 25% 30.19 in 10.0 mi North 15.0 mph 19.6 mph N/A   Clear
6:35 PM 49.6 °F - 16.5 °F 27% 30.20 in 10.0 mi North 8.1 mph 18.4 mph N/A   Clear
7:15 PM 45.5 °F 41.8 °F 18.7 °F 34% 30.21 in 10.0 mi NNW 6.9 mph - N/A   Clear
7:55 PM 44.8 °F 42.4 °F 19.6 °F 37% 30.23 in 10.0 mi NNW 4.6 mph - N/A   Clear
8:15 PM 44.1 °F 40.1 °F 20.1 °F 39% 30.24 in 10.0 mi NNW 6.9 mph - N/A   Clear
8:55 PM 42.8 °F 40.1 °F 20.8 °F 42% 30.25 in 10.0 mi NW 4.6 mph - N/A   Clear
9:15 PM 41.7 °F 38.8 °F 21.6 °F 45% 30.25 in 10.0 mi NNW 4.6 mph - N/A   Clear
9:35 PM 41.4 °F 38.4 °F 22.5 °F 47% 30.25 in 10.0 mi NNW 4.6 mph - N/A   Clear
9:55 PM 41.0 °F 37.1 °F 23.0 °F 49% 30.26 in 10.0 mi NNW 5.8 mph - N/A   Clear
10:15 PM 40.1 °F 36.9 °F 23.2 °F 51% 30.26 in 10.0 mi NW 4.6 mph - N/A   Clear
10:35 PM 38.3 °F 35.9 °F 23.4 °F 55% 30.27 in 10.0 mi WNW 3.5 mph - N/A   Clear
10:55 PM 37.0 °F 32.4 °F 23.2 °F 57% 30.26 in 10.0 mi WNW 5.8 mph - N/A   Clear
11:15 PM 36.3 °F 30.8 °F 23.2 °F 59% 30.27 in 10.0 mi WNW 6.9 mph - N/A   Clear
11:35 PM 35.4 °F 29.7 °F 23.2 °F 61% 30.27 in 10.0 mi WNW 6.9 mph - N/A   Clear